Regional Weather Roundup
Issued by NWS Bismarck, ND

Home | Current Version | Previous Version | Text Only | Print | Product List | Glossary On
Versions: 1 2 3 4 5 6 7 8 9 10 11 12 13 14 15 16 17 18 19 20 21 22 23 24 25 26 27 28 29 30 31 32 33 34 35 36 37 38 39 40 41 42 43 44 45 46 47 48 49 50
000
ASUS43 KBIS 300310
RWRBIS

NWR BROADCAST TEXT
NATIONAL WEATHER SERVICE BISMARCK ND
1000 PM CDT MON MAY 29 2017

NOTE: "FAIR" INDICATES FEW OR NO CLOUDS BELOW 12,000 FEET WITH NO
SIGNIFICANT WEATHER AND/OR OBSTRUCTIONS TO VISIBILITY.


CITY           SKY/WX    TMP DP  RH WIND       PRES   REMARKS
WILLISTON      FAIR      53  31  42 NW9       30.04S
MINOT          FAIR      50  39  66 N7        30.00R
MINOT AFB      FAIR      53  39  61 N5        29.99R
BISMARCK       FAIR      57  37  47 NW6       29.99S
DICKINSON      FAIR      52  28  39 N7        30.04S
GARRISON         N/A     52  38  58 NE6       29.99R
HETTINGER ARPT FAIR      50  32  50 N6        30.07S
JAMESTOWN      MOCLDY    53  41  63 NW10      29.94R
HAZEN          FAIR      48  34  57 CALM      30.02R
LINTON         MOCLDY    55  43  62 W6        30.01R
MANDAN         FAIR      52  36  54 NW8       30.00S
STANLEY        FAIR      54  34  47 N8        30.04R
TIOGA          FAIR      52  28  40 N7        30.04R
WATFORD CITY   FAIR      55  30  38 NW6       30.04R
$$

CITY           SKY/WX    TMP DP  RH WIND       PRES   REMARKS
GRAND FORKS    CLOUDY    50  43  77 N15       29.91R
GRAND FORKS AF CLOUDY    49  42  79 N13       29.92R
DEVILS LAKE    CLOUDY    51  42  71 N21       29.95R
FARGO          CLOUDY    53  46  77 N10       29.91R
CAVALIER       CLOUDY    48  41  76 NW17G25   29.91R
GRAFTON        CLOUDY    48  43  81 NW17G30   29.93R
GWINNER        MOCLDY    54  43  66 MISG      29.95R
LANGDON        CLOUDY    46  45  93 N16G23    29.93R
ROLLA          CLOUDY    46  43  87 N13       29.96S
$$

CITY           SKY/WX    TMP DP  RH WIND       PRES   REMARKS
ABERDEEN       CLOUDY    56  38  50 NW6       29.97S
MOBRIDGE       MOCLDY    55  37  50 NW8       29.99R
BUFFALO          N/A     56  31  38 N14       30.03R
RAPID CITY     FAIR      51  30  44 N12       30.10R
GLASGOW        FAIR      58  28  32 N8        30.09R
SIDNEY         FAIR      55  32  41 NW7       30.07R
WOLF POINT     FAIR      59  28  30 N7        30.08R
GLENDIVE       FAIR      57  29  34 N7        30.08S
MILES CITY     FAIR      61  25  25 N8        30.09R
BAKER          FAIR      55  32  41 NW7       30.09S
$$

CITY           SKY/WX    TMP DP  RH WIND       PRES   REMARKS
BILLINGS       FAIR      67  38  34 SE7       30.11S
GREAT FALLS    FAIR      64  45  49 E8        30.09S
REGINA         CLEAR     57  27  30 N12       30.07R
ESTEVAN        PTCLDY    50  37  62 NE7       30.02R
$$





USA.gov is the U.S. government's official web portal to all federal, state and local government web resources and services.